User: anonymous   Login
Location: Unspecified
(0.0000°N, 0.0000°E)
Time: 07:47:51
(UTC+00:00)
Language:

SRMSAT - Orbit

View from above orbital plane
View from above orbital plane
View from above satellite
View from above satellite

Ground track
Ground track

The orbit data is extracted from the following two-line orbital elements,

1 37841U 11058D   19077.61820293 +.00000306 +00000-0 +22807-4 0  9995
2 37841 019.9712 227.9904 0011765 265.7296 179.7942 14.10626679383582
Epoch (UTC): 18 March 2019 14:50:12
Eccentricity: 0.0011765
inclination: 19.9712°
perigee height: 849 km
apogee height: 866 km
right ascension of ascending node: 227.9904°
argument of perigee: 265.7296°
revolutions per day: 14.10626679
mean anomaly at epoch: 179.7942°
orbit number at epoch: 38358

The dashed part of the orbit path shows where the satellite is in the earth's shadow,  

DLR